Weather in Korepino

Russia / Perm Krai     61°03′06″N   57°09′01″E
temp.,
°C
wind,
m/s
gust,
m/s
humid.,
%
clouds,
%
prec.,
mm/h
press.,
hPa
HPBL,
m
2 march, tue
tue223:00−13s51393100 0.1 1006515
02:00−13s51493100 0.3 1002581
05:00−14ssw51392100 0.6 999631
08:00−13s51293100 0.5 996635
11:00−11s51293100 0.7 994622
14:00−10s51193100 0.4 992615
17:00−11s51292100 0.8 992544
20:00−12s41193100 0.2 992433
3 march, wed
wed323:00−12s41194100 0.4 992359
02:00−12s3109597 0.1 991284
05:00−12s399599 0.4 992274
08:00−12s2596100 0.6 991187
11:00−8sw1395100 1.7 992217
14:00−4wnw2494100 0.4 992447
17:00−4wnw2495100 0.8 993397
20:00−7w2397100 0.4 99490
4 march, thu
thu423:00−9w249898 0.7 995110
02:00−13ssw229799 0.1 99429
05:00−12ssw249799 0.3 994122
08:00−12ssw2696100 0.3 994214
11:00−10ssw259599 0.6 994345
14:00−8ssw3693100 0.4 993608
17:00−7ssw3793100 0.7 994757
20:00−9ssw2896100 0.3 994350
5 march, fri
fri523:00−10s259699 0.4 993150
02:00−10ese2696100 0.1 991243
05:00−10ese3795100 0.3 988327
08:00−9ese3895100 1.1 985417
11:00−8ne2495100 2.1 985376
14:00−6nnw3694100 0.8 988593
17:00−8nw5994100 1.6 993636
20:00−11nw4995100 0.3 997523
6 march, sat
sat623:00−14wnw3796100 0.4 1001312
02:00−16w2697100 0.1 1004213
05:00−20wsw1299100 0.3 100643
08:00−21sw2299100 0.1 100736
11:00−18ssw2497100 0.1 1007287
14:00−14ssw2493100 0.0 1007494
17:00−14ssw2393100 0.1 1005492
20:00−16s1297100 0.1 100420